Merida, Mexico

5:35 AM CST on February 27, 2017 (GMT -0600)
Lic Manuel Crecencio Rejon

Weather History for MMMD - November, 2012

Change the Weather History Date:

Sunday, November 11, 2012

  Actual Average Record
Temperature  
Mean Temperature 78 °F -  
Max Temperature 92 °F 86 °F 95 °F (2004)
Min Temperature 65 °F 68 °F 60 °F (1996)
Cooling Degree Days 14    
Growing Degree Days 28 (Base 50)    
Moisture  
Dew Point 62 °F    
Average Humidity 59    
Maximum Humidity 78    
Minimum Humidity 31    
Precipitation  
Precipitation 0.00 in - - ()
Sea Level Pressure  
Sea Level Pressure 30.01 in    
Wind  
Wind Speed 9 mph ()    
Max Wind Speed 14 mph    
Max Gust Speed -    
Visibility 6.5 miles    
Events      
Averages and records for this station are not official NWS values.
T = Trace of Precipitation, MM = Missing Value Source: Averaged Metar Reports

Daily Weather History Graph

Daily Weather History Graph

Search for Another Location

Airport or City:

Trip Planner

Search our weather history database for the weather conditions in past years. The results will help you decide how hot, cold, wet, or windy it might be!

Date:

Astronomy

Nov. 11, 2012 Rise Set
Actual Time 6:06 AM CST 5:18 PM CST
Civil Twilight 5:43 AM CST 5:41 PM CST
Nautical Twilight 5:16 AM CST 6:08 PM CST
Astronomical Twilight 4:50 AM CST 6:34 PM CST
Moon 3:36 AM CST (11/11) 3:30 PM CST (11/11)
Length of Visible Light 11h 57m
Length of Day
11h 11m
Waning Crescent, 7% of the Moon is Illuminated
Nov 11
Waning Crescent
Nov 13
New
Nov 20
First Quarter
Nov 28
Full
Dec 6
Last Quarter

Hourly Weather History & Observations

Time (CST) Temp. Heat Index Dew Point Humidity Pressure Visibility Wind Dir Wind Speed Gust Speed Precip Events Conditions
12:45 AM 69.8 °F - 59.0 °F 68% 30.04 in 7.0 mi ENE 8.1 mph - N/A   Partly Cloudy
1:45 AM 68.0 °F - 59.0 °F 73% 30.03 in 7.0 mi East 9.2 mph - N/A   Partly Cloudy
2:48 AM 69.8 °F - 60.8 °F 73% 30.01 in 7.0 mi East 9.2 mph - N/A   Clear
2:50 AM 70 °F - 64 °F 77% 30.02 in 3 mi ENE 11.2 mph - -  
3:44 AM 69.8 °F - 60.8 °F 73% 30.01 in 7.0 mi East 9.2 mph - N/A   Clear
4:43 AM 68.0 °F - 60.8 °F 78% 30.02 in 7.0 mi East 13.8 mph - N/A   Clear
5:48 AM 68.0 °F - 60.8 °F 78% 30.04 in 7.0 mi East 11.5 mph - N/A   Clear
5:50 AM 68 °F - 63 °F 78% 30.03 in 3 mi ESE 4.5 mph - -  
6:48 AM 68.0 °F - 60.8 °F 78% 30.04 in 7.0 mi East 8.1 mph - N/A   Clear
7:46 AM 73.4 °F - 60.8 °F 65% 30.05 in 7.0 mi East 12.7 mph - N/A   Clear
8:45 AM 77.0 °F - 62.6 °F 61% 30.04 in 7.0 mi East 12.7 mph - N/A   Clear
8:50 AM 79 °F - 66 °F 55% 30.07 in 6 mi ESE 6.7 mph - -  
9:43 AM 82.4 °F 83.4 °F 62.6 °F 51% 30.05 in 7.0 mi East 13.8 mph - N/A   Clear
10:47 AM 86.0 °F 85.4 °F 59.0 °F 40% 30.02 in 7.0 mi ESE 12.7 mph - N/A   Partly Cloudy
11:45 AM 87.8 °F 86.5 °F 57.2 °F 35% 30.01 in 7.0 mi East 11.5 mph - N/A   Partly Cloudy
11:50 AM 88 °F - 68 °F 43% 30.05 in 6 mi ESE 11.2 mph - -   Scattered Clouds
12:46 PM 89.6 °F 88.1 °F 57.2 °F 33% 29.96 in 7.0 mi ESE 11.5 mph - N/A   Partly Cloudy
1:45 PM 89.6 °F 87.7 °F 55.4 °F 31% 29.94 in 7.0 mi ESE 6.9 mph - N/A   Scattered Clouds
2:44 PM 89.6 °F 87.7 °F 55.4 °F 31% 29.96 in 7.0 mi SE 4.6 mph - N/A   Mostly Cloudy
3:00 PM 90 °F - 68 °F 38% 29.94 in 6 mi ESE 8.9 mph - -  
3:47 PM 87.8 °F 86.1 °F 55.4 °F 33% 29.93 in 7.0 mi East 6.9 mph - N/A   Mostly Cloudy
4:43 PM 86.0 °F 84.9 °F 57.2 °F 37% 29.94 in 7.0 mi ESE 9.2 mph - N/A   Scattered Clouds
5:49 PM 80.6 °F 82.3 °F 64.4 °F 58% 29.97 in 7.0 mi ENE 6.9 mph - N/A   Scattered Clouds
5:50 PM 83 °F - 68 °F 52% 29.96 in 6 mi NE 6.7 mph - -   Scattered Clouds
6:40 PM 78.8 °F - 66.2 °F 65% 29.98 in 7.0 mi ENE 6.9 mph - N/A   Scattered Clouds
7:40 PM 77.0 °F - 66.2 °F 69% 30.01 in 7.0 mi East 10.4 mph - N/A   Scattered Clouds
8:45 PM 77.0 °F - 64.4 °F 65% 30.02 in 7.0 mi East 11.5 mph - N/A   Partly Cloudy
8:50 PM 78 °F - 69 °F 66% 30.03 in 3 mi ESE 8.9 mph - -   Scattered Clouds
9:49 PM 75.2 °F - 64.4 °F 69% 30.04 in 7.0 mi East 13.8 mph - N/A   Clear
10:45 PM 73.4 °F - 64.4 °F 73% 30.04 in 7.0 mi East 10.4 mph - N/A   Clear
11:50 PM 71.6 °F - 62.6 °F 73% 30.07 in 7.0 mi East 6.9 mph - N/A   Clear